Flag for U.S.A. Weather past 2 weeks in Lawrence, Kansas, U.S.A.

Now
70 °F

Thunderstorms. Partly cloudy.


Feels Like: 69 °F
Forecast: 56 / 76 °F
Wind: 7 mph from Southeast

Location: Lawrence Municipal Airport

Current Time: Oct 1, 2014 at 10:03:17 PM

Latest Report: Oct 1, 2014 at 8:52 PM


Visibility: 10 mi

Pressure: 29.69 "Hg

Humidity: 84%

Dew point: 65 °F

Location of LawrenceLocation

Historic Weather in Lawrence — Graph

°F

Lawrence temperature yesterday

Maximum temperature yesterday: 85 °F (at 1:52 PM)
Minimum temperature yesterday: 57 °F (at 5:52 AM)
Average temperature yesterday: 71 °F

Past Weeks' High & Low Weather Summary

 TemperatureHumidityPressure
High85 °F (Sep 20, 12:52 PM)100% (Sep 21, 12:59 AM)30.34 "Hg (Sep 21, 12:59 AM)
Low44 °F (Sep 22, 5:52 AM)32% (Sep 21, 4:52 PM)29.66 "Hg (Oct 1, 3:52 PM)
Average66 °F76%30.04 "Hg
* Reported Sep 16 8:52 PM — Oct 1 8:52 PM, Lawrence, Weather by CustomWeather, © 2014

Note: Actual official high and low records may vary slightly from our data, if they occured in-between our weather recording intervals... More about our weather records

Advertising

Lawrence weather history for previous 24 hours

 ConditionsComfort  
Time TempWeatherWind HumidityBarometerVisibility
8:52 PM
Oct 1
70 °FThunderstorms. Partly cloudy.7 mph84%29.69 "Hg10 mi
7:52 PM71 °FBroken clouds.9 mph78%29.69 "Hg10 mi
6:52 PM75 °FBroken clouds.6 mph71%29.68 "Hg10 mi
5:52 PM81 °FPartly sunny.8 mph62%29.68 "Hg8 mi
4:52 PM82 °FMostly cloudy.3 mph56%29.68 "Hg8 mi
3:52 PM82 °FSunny.8 mph58%29.66 "Hg9 mi
2:52 PM81 °FSunny.6 mph60%29.68 "Hg9 mi
1:52 PM80 °FSunny.9 mph60%29.71 "Hg10 mi
12:52 PM78 °FPassing clouds.8 mph66%29.73 "Hg10 mi
11:52 AM76 °FScattered clouds.3 mph72%29.75 "Hg8 mi
10:52 AM71 °FPartly sunny.7 mph84%29.75 "Hg6 mi
9:52 AM69 °FScattered clouds.7 mph84%29.75 "Hg5 mi
9:03 AM66 °FFog.5 mph90%29.77 "Hg4 mi
8:52 AM66 °FThundershowers. Fog.6 mph90%29.75 "Hg4 mi
7:52 AM65 °FFog.9 mph91%29.74 "Hg4 mi
6:52 AM64 °FPassing clouds.6 mph94%29.73 "Hg7 mi
5:52 AM65 °FMostly cloudy.6 mph91%29.73 "Hg9 mi
4:52 AM69 °FThunderstorms. Overcast.13 mph76%29.72 "Hg7 mi
3:52 AM70 °FMostly cloudy.12 mph71%29.70 "Hg9 mi
2:52 AM71 °FOvercast.15 mph68%29.71 "Hg9 mi
1:52 AM71 °FOvercast.15 mph71%29.72 "Hg9 mi
12:52 AM69 °FPassing clouds.9 mph79%29.73 "Hg8 mi
11:52 PM
Sep 30
69 °FPassing clouds.8 mph79%29.75 "Hg8 mi
10:52 PM69 °FPassing clouds.8 mph73%29.75 "Hg9 mi
Weather by CustomWeather, © 2014

See weather overviewHow to use our weather pages